| time (UTC) | temp C | wind direction | speed KPH | gust KPH | rain 1hr cm | rain 24hr cm | rain mn cm | humidity % | barometer mb |
| 20260505041532 | 10 | 127 | 3.2 | 6.4 | 0.08 | 0.20 | 0.20 | 85 | 1018.8 |
| 20260505041517 | 6 | 98 | 12.9 | 27.4 | 0.23 | 0.23 | 0.23 | 99 | 1020.2 |
| 20260505040609 | 10 | 100 | 1.6 | 6.4 | 0.05 | 0.18 | 0.18 | 81 | 1018.7 |
| 20260505040554 | 6 | 101 | 14.5 | 33.8 | 0.23 | 0.23 | 0.23 | 99 | 1020.2 |
| 20260505035530 | 6 | 104 | 12.9 | 24.1 | 0.18 | 0.18 | 0.18 | 96 | 1020.4 |
| 20260505035525 | 10 | 51 | 1.6 | 6.4 | 0.03 | 0.15 | 0.15 | 79 | 1018.7 |
| 20260505034546 | 6 | 113 | 14.5 | 22.5 | 0.15 | 0.15 | 0.15 | 96 | 1020.4 |
| 20260505034521 | 10 | 36 | 1.6 | 6.4 | 0.00 | 0.15 | 0.15 | 79 | 1018.7 |
| 20260505033522 | 7 | 105 | 9.7 | 19.3 | 0.08 | 0.08 | 0.08 | 94 | 1020.7 |
| 20260505033518 | 10 | 64 | 3.2 | 6.4 | 0.00 | 0.15 | 0.15 | 80 | 1018.7 |
| 20260505032535 | 9 | 53 | 1.6 | 6.4 | 0.03 | 0.15 | 0.15 | 84 | 1018.9 |
| 20260505032518 | 7 | 126 | 6.4 | 11.3 | 0.03 | 0.03 | 0.03 | 92 | 1020.6 |
| 20260505031555 | 7 | 130 | 6.4 | 12.9 | 0.00 | 0.00 | 0.00 | 90 | 1020.5 |
| 20260505031531 | 9 | 169 | 4.8 | 8.0 | 0.05 | 0.15 | 0.15 | 85 | 1018.8 |
| 20260505030531 | 7 | 134 | 8.0 | 16.1 | 0.00 | 0.00 | 0.00 | 88 | 1020.6 |
| 20260505030527 | 9 | 172 | 8.0 | 9.7 | 0.08 | 0.13 | 0.13 | 83 | 1018.8 |
| 20260505025527 | 7 | 148 | 8.0 | 19.3 | 0.00 | 0.00 | 0.00 | 86 | 1020.5 |
| 20260505025524 | 9 | 171 | 6.4 | 11.3 | 0.10 | 0.13 | 0.13 | 79 | 1018.7 |
| 20260505024523 | 7 | 149 | 12.9 | 22.5 | 0.00 | 0.00 | 0.00 | 83 | 1020.7 |
| 20260505024520 | 9 | 162 | 4.8 | 9.7 | 0.13 | 0.13 | 0.13 | 82 | 1019.0 |
| 20260505023537 | 10 | 104 | 3.2 | 6.4 | 0.13 | 0.13 | 0.13 | 73 | 1019.0 |
| 20260505023518 | 8 | 141 | 8.0 | 20.9 | 0.00 | 0.00 | 0.00 | 80 | 1020.7 |
| 20260505022534 | 8 | 141 | 9.7 | 20.9 | 0.00 | 0.00 | 0.00 | 78 | 1020.7 |
| 20260505021550 | 8 | 138 | 8.0 | 17.7 | 0.00 | 0.00 | 0.00 | 78 | 1020.9 |
| 20260505021529 | 11 | 49 | 0.0 | 3.2 | 0.10 | 0.10 | 0.10 | 70 | 1019.0 |
| 20260505020546 | 8 | 128 | 6.4 | 16.1 | 0.00 | 0.00 | 0.00 | 82 | 1021.0 |
| 20260505020526 | 11 | 37 | 1.6 | 3.2 | 0.05 | 0.05 | 0.05 | 68 | 1019.3 |
| 20260505015522 | 8 | 123 | 6.4 | 16.1 | 0.00 | 0.00 | 0.00 | 82 | 1021.1 |
| 20260505014519 | 11 | 43 | 3.2 | 3.2 | 0.00 | 0.00 | 0.00 | 63 | 1019.5 |
| 20260505013535 | 12 | 51 | 1.6 | 3.2 | 0.00 | 0.00 | 0.00 | 59 | 1019.5 |
| 20260505012549 | 8 | 120 | 8.0 | 12.9 | 0.00 | 0.00 | 0.00 | 71 | 1021.3 |
| 20260505012532 | 11 | 157 | 4.8 | 6.4 | 0.00 | 0.00 | 0.00 | 60 | 1019.4 |
| 20260505011528 | 11 | 156 | 4.8 | 6.4 | 0.00 | 0.00 | 0.00 | 64 | 1019.7 |
| 20260505011525 | 8 | 115 | 4.8 | 11.3 | 0.00 | 0.00 | 0.00 | 71 | 1021.4 |
| 20260505010525 | 11 | 167 | 4.8 | 6.4 | 0.00 | 0.00 | 0.00 | 67 | 1019.7 |
| 20260505010520 | 9 | 135 | 6.4 | 16.1 | 0.00 | 0.00 | 0.00 | 70 | 1021.6 |
| 20260505005521 | 11 | 155 | 4.8 | 6.4 | 0.00 | 0.00 | 0.00 | 71 | 1019.7 |
| 20260505005516 | 9 | 121 | 6.4 | 17.7 | 0.00 | 0.00 | 0.00 | 71 | 1021.6 |
| 20260505004552 | 9 | 140 | 6.4 | 16.1 | 0.00 | 0.00 | 0.00 | 70 | 1021.6 |
| 20260505004517 | 11 | 140 | 4.8 | 6.4 | 0.00 | 0.00 | 0.00 | 72 | 1019.9 |
| 20260505003534 | 11 | 145 | 3.2 | 6.4 | 0.00 | 0.00 | 0.00 | 71 | 1020.0 |
| 20260505003528 | 9 | 125 | 6.4 | 14.5 | 0.00 | 0.00 | 0.00 | 68 | 1021.7 |
| 20260505002544 | 9 | 109 | 6.4 | 20.9 | 0.00 | 0.00 | 0.00 | 66 | 1022.1 |
| 20260505002530 | 11 | 167 | 4.8 | 8.0 | 0.00 | 0.00 | 0.00 | 69 | 1020.2 |
| 20260505001526 | 11 | 157 | 4.8 | 9.7 | 0.00 | 0.00 | 0.00 | 74 | 1020.2 |
| 20260505001519 | 9 | 109 | 8.0 | 17.7 | 0.00 | 0.00 | 0.00 | 66 | 1022.1 |
| 20260505000523 | 11 | 326 | 1.6 | 4.8 | 0.00 | 0.00 | 0.00 | 75 | 1020.3 |
| 20260505000516 | 9 | 99 | 4.8 | 12.9 | 0.00 | 0.00 | 0.00 | 69 | 1022.3 |
| 20260504235531 | 9 | 103 | 4.8 | 9.7 | 0.00 | 0.00 | 0.00 | 75 | 1022.2 |
| 20260504235519 | 12 | 43 | 1.6 | 4.8 | 0.00 | 0.00 | 0.00 | 58 | 1020.2 |
| 20260504234527 | 9 | 93 | 4.8 | 16.1 | 0.00 | 0.00 | 0.00 | 72 | 1022.3 |
| 20260504234516 | 11 | 100 | 3.2 | 6.4 | 0.00 | 0.00 | 0.00 | 61 | 1020.3 |
| 20260504233532 | 11 | 132 | 4.8 | 6.4 | 0.00 | 0.00 | 0.00 | 77 | 1020.5 |
| 20260504233523 | 9 | 131 | 6.4 | 19.3 | 0.00 | 0.00 | 0.00 | 75 | 1022.4 |
| 20260504232529 | 11 | 86 | 1.6 | 3.2 | 0.00 | 0.00 | 0.00 | 75 | 1020.7 |
| 20260504232519 | 9 | 131 | 8.0 | 20.9 | 0.00 | 0.00 | 0.00 | 67 | 1022.5 |
| 20260504231555 | 9 | 103 | 8.0 | 20.9 | 0.00 | 0.00 | 0.00 | 64 | 1022.8 |
| 20260504231525 | 11 | 119 | 1.6 | 4.8 | 0.00 | 0.00 | 0.00 | 71 | 1020.9 |
| 20260504230531 | 9 | 78 | 4.8 | 16.1 | 0.00 | 0.00 | 0.00 | 73 | 1022.9 |
| 20260504230522 | 11 | 128 | 1.6 | 4.8 | 0.00 | 0.00 | 0.00 | 78 | 1021.0 |
| 20260504225546 | 9 | 117 | 6.4 | 17.7 | 0.00 | 0.00 | 0.00 | 85 | 1023.1 |
| 20260504225538 | 11 | 142 | 1.6 | 4.8 | 0.00 | 0.00 | 0.00 | 79 | 1021.1 |
| 20260504224535 | 11 | 125 | 3.2 | 6.4 | 0.00 | 0.00 | 0.00 | 79 | 1021.0 |
| 20260504224522 | 9 | 27 | 4.8 | 9.7 | 0.00 | 0.00 | 0.00 | 93 | 1023.1 |
| 20260504223531 | 11 | 125 | 3.2 | 4.8 | 0.00 | 0.00 | 0.00 | 80 | 1020.9 |
| 20260504223517 | 9 | 135 | 6.4 | 17.7 | 0.00 | 0.00 | 0.00 | 93 | 1022.9 |
| 20260504222533 | 8 | 142 | 6.4 | 19.3 | 0.00 | 0.00 | 0.00 | 96 | 1023.0 |
| 20260504222528 | 11 | 95 | 1.6 | 4.8 | 0.00 | 0.00 | 0.00 | 80 | 1021.0 |
| 20260504221604 | 11 | 91 | 1.6 | 4.8 | 0.00 | 0.00 | 0.00 | 80 | 1021.0 |
| 20260504221530 | 8 | 106 | 4.8 | 9.7 | 0.00 | 0.00 | 0.00 | 96 | 1022.9 |
| 20260504220525 | 9 | 90 | 3.2 | 9.7 | 0.00 | 0.00 | 0.00 | 96 | 1023.0 |
| 20260504220520 | 11 | 70 | 1.6 | 3.2 | 0.00 | 0.00 | 0.00 | 80 | 1021.0 |
| 20260504215541 | 9 | 133 | 6.4 | 14.5 | 0.00 | 0.00 | 0.00 | 96 | 1023.0 |
| 20260504215517 | 11 | 56 | 1.6 | 4.8 | 0.00 | 0.00 | 0.00 | 82 | 1021.0 |
| 20260504214533 | 11 | 116 | 3.2 | 4.8 | 0.00 | 0.00 | 0.00 | 82 | 1021.0 |
| 20260504214517 | 9 | 138 | 9.7 | 20.9 | 0.00 | 0.00 | 0.00 | 95 | 1023.0 |
| 20260504213610 | 10 | 116 | 3.2 | 4.8 | 0.00 | 0.00 | 0.00 | 82 | 1021.0 |
| 20260504213533 | 9 | 135 | 11.3 | 24.1 | 0.00 | 0.00 | 0.00 | 95 | 1023.1 |
| 20260504212528 | 9 | 138 | 9.7 | 19.3 | 0.00 | 0.00 | 0.00 | 94 | 1023.1 |
| 20260504212526 | 11 | 133 | 4.8 | 6.4 | 0.00 | 0.00 | 0.00 | 83 | 1021.2 |
| 20260504211525 | 9 | 128 | 8.0 | 17.7 | 0.00 | 0.00 | 0.00 | 95 | 1023.1 |
| 20260504211522 | 11 | 117 | 3.2 | 4.8 | 0.00 | 0.00 | 0.00 | 83 | 1021.3 |
| 20260504210520 | 9 | 130 | 6.4 | 12.9 | 0.00 | 0.00 | 0.00 | 94 | 1023.3 |
| 20260504205555 | 11 | 103 | 1.6 | 3.2 | 0.00 | 0.00 | 0.00 | 83 | 1021.5 |
| 20260504205516 | 9 | 120 | 6.4 | 12.9 | 0.00 | 0.00 | 0.00 | 94 | 1023.3 |
| 20260504204532 | 11 | 57 | 1.6 | 3.2 | 0.00 | 0.00 | 0.00 | 83 | 1021.3 |
| 20260504203528 | 9 | 91 | 1.6 | 8.0 | 0.00 | 0.00 | 0.00 | 93 | 1023.5 |
| 20260504202545 | 11 | 123 | 3.2 | 4.8 | 0.00 | 0.00 | 0.00 | 84 | 1021.1 |
| 20260504202524 | 9 | 124 | 3.2 | 9.7 | 0.00 | 0.00 | 0.00 | 92 | 1023.3 |
| 20260504201541 | 11 | 110 | 3.2 | 6.4 | 0.00 | 0.00 | 0.00 | 84 | 1021.3 |
| 20260504201519 | 9 | 104 | 6.4 | 17.7 | 0.00 | 0.00 | 0.00 | 91 | 1023.3 |
| 20260504200535 | 9 | 120 | 8.0 | 16.1 | 0.00 | 0.00 | 0.00 | 92 | 1023.0 |
| 20260504200518 | 11 | 115 | 1.6 | 3.2 | 0.00 | 0.00 | 0.00 | 85 | 1021.3 |
| 20260504195534 | 11 | 111 | 0.0 | 4.8 | 0.00 | 0.00 | 0.00 | 84 | 1021.3 |
| 20260504195530 | 9 | 118 | 8.0 | 14.5 | 0.00 | 0.00 | 0.00 | 90 | 1023.0 |
| 20260504194530 | 11 | 81 | 1.6 | 4.8 | 0.00 | 0.00 | 0.00 | 83 | 1021.2 |
| 20260504193527 | 11 | 70 | 1.6 | 4.8 | 0.00 | 0.00 | 0.00 | 83 | 1021.2 |
| 20260504193522 | 10 | 137 | 8.0 | 19.3 | 0.00 | 0.00 | 0.00 | 88 | 1023.4 |
| 20260504192523 | 12 | 57 | 1.6 | 3.2 | 0.00 | 0.00 | 0.00 | 82 | 1021.0 |
| 20260504192517 | 10 | 135 | 9.7 | 19.3 | 0.00 | 0.00 | 0.00 | 87 | 1023.3 |
| 20260504191539 | 10 | 136 | 8.0 | 16.1 | 0.00 | 0.00 | 0.00 | 88 | 1023.2 |
| 20260504191520 | 12 | 44 | 1.6 | 3.2 | 0.00 | 0.00 | 0.00 | 80 | 1020.9 |
| 20260504190530 | 9 | 135 | 4.8 | 9.7 | 0.00 | 0.00 | 0.00 | 89 | 1023.1 |
| 20260504190516 | 12 | 30 | 0.0 | 3.2 | 0.00 | 0.00 | 0.00 | 79 | 1020.9 |
| 20260504185533 | 12 | 84 | 1.6 | 3.2 | 0.00 | 0.00 | 0.00 | 80 | 1020.8 |
| 20260504185525 | 10 | 92 | 1.6 | 8.0 | 0.00 | 0.00 | 0.00 | 87 | 1023.1 |
| 20260504184529 | 12 | 72 | 1.6 | 3.2 | 0.00 | 0.00 | 0.00 | 80 | 1020.7 |
| 20260504184521 | 10 | 139 | 6.4 | 11.3 | 0.00 | 0.00 | 0.00 | 88 | 1022.8 |
| 20260504183525 | 12 | 78 | 3.2 | 4.8 | 0.00 | 0.00 | 0.00 | 80 | 1020.7 |
| 20260504183517 | 10 | 138 | 4.8 | 11.3 | 0.00 | 0.00 | 0.00 | 90 | 1023.0 |
| 20260504182533 | 10 | 147 | 8.0 | 14.5 | 0.00 | 0.00 | 0.00 | 87 | 1023.0 |
| 20260504182522 | 12 | 70 | 1.6 | 4.8 | 0.00 | 0.00 | 0.00 | 80 | 1020.8 |
| 20260504181529 | 10 | 143 | 6.4 | 12.9 | 0.00 | 0.00 | 0.00 | 87 | 1023.1 |
| 20260504181518 | 11 | 145 | 3.2 | 6.4 | 0.00 | 0.00 | 0.00 | 81 | 1020.7 |
| 20260504180534 | 12 | 136 | 3.2 | 6.4 | 0.00 | 0.00 | 0.00 | 81 | 1020.7 |
| 20260504180525 | 10 | 141 | 8.0 | 14.5 | 0.00 | 0.00 | 0.00 | 87 | 1022.8 |
| 20260504175531 | 11 | 166 | 3.2 | 8.0 | 0.00 | 0.00 | 0.00 | 81 | 1020.7 |
| 20260504175520 | 10 | 118 | 3.2 | 8.0 | 0.00 | 0.00 | 0.00 | 87 | 1022.9 |
| 20260504174527 | 12 | 164 | 6.4 | 9.7 | 0.00 | 0.00 | 0.00 | 80 | 1020.6 |
| 20260504174516 | 10 | 112 | 6.4 | 11.3 | 0.00 | 0.00 | 0.00 | 87 | 1022.9 |
| 20260504173532 | 9 | 126 | 4.8 | 12.9 | 0.00 | 0.00 | 0.00 | 95 | 1023.0 |
| 20260504173524 | 12 | 168 | 6.4 | 11.3 | 0.00 | 0.00 | 0.00 | 80 | 1020.7 |
| 20260504172608 | 9 | 34 | 1.6 | 6.4 | 0.00 | 0.00 | 0.00 | 95 | 1023.1 |
| 20260504172520 | 12 | 168 | 6.4 | 9.7 | 0.00 | 0.00 | 0.00 | 80 | 1020.6 |
| 20260504171523 | 10 | 276 | 3.2 | 11.3 | 0.00 | 0.00 | 0.00 | 94 | 1023.1 |
| 20260504171517 | 12 | 168 | 8.0 | 12.9 | 0.00 | 0.00 | 0.00 | 79 | 1020.6 |
| 20260504170533 | 12 | 164 | 6.4 | 11.3 | 0.00 | 0.00 | 0.00 | 79 | 1020.7 |
| 20260504170519 | 10 | 274 | 1.6 | 6.4 | 0.00 | 0.00 | 0.00 | 91 | 1023.1 |
| 20260504150531 | 12 | 41 | 4.8 | 11.3 | 0.00 | 0.00 | 0.00 | 81 | 1023.9 |
| 20260504140609 | 17 | 341 | 1.6 | 4.8 | 0.00 | 0.00 | 0.00 | 59 | 1021.3 |
| 20260504140526 | 13 | 103 | 4.8 | 9.7 | 0.00 | 0.00 | 0.00 | 74 | 1023.9 |
| 20260504130528 | 17 | 355 | 1.6 | 4.8 | 0.00 | 0.00 | 0.00 | 61 | 1021.8 |
| 20260504130521 | 14 | 89 | 4.8 | 11.3 | 0.00 | 0.00 | 0.00 | 64 | 1024.4 |
| 20260504110552 | 13 | 303 | 3.2 | 9.7 | 0.00 | 0.00 | 0.00 | 64 | 1025.0 |
| 20260504110545 | 17 | 331 | 1.6 | 6.4 | 0.00 | 0.00 | 0.00 | 61 | 1022.4 |
| 20260504100527 | 13 | 61 | 3.2 | 9.7 | 0.00 | 0.00 | 0.00 | 63 | 1025.3 |
| 20260504100523 | 16 | 30 | 1.6 | 4.8 | 0.00 | 0.00 | 0.00 | 63 | 1022.8 |
| 20260504081541 | 12 | 151 | 3.2 | 8.0 | 0.00 | 0.00 | 0.00 | 65 | 1025.2 |
| 20260504081524 | 14 | 24 | 3.2 | 4.8 | 0.00 | 0.00 | 0.00 | 71 | 1022.9 |
| 20260504080537 | 13 | 258 | 3.2 | 9.7 | 0.00 | 0.00 | 0.00 | 66 | 1025.2 |
| 20260504080520 | 14 | 63 | 1.6 | 4.8 | 0.00 | 0.00 | 0.00 | 70 | 1022.8 |
| 20260504050541 | 11 | 137 | 6.4 | 8.0 | 0.00 | 0.00 | 0.00 | 80 | 1023.6 |
| 20260504050515 | 12 | 62 | 3.2 | 6.4 | 0.00 | 0.00 | 0.00 | 65 | 1021.5 |
| 20260504045532 | 11 | 85 | 3.2 | 6.4 | 0.00 | 0.00 | 0.00 | 66 | 1021.5 |
| 20260504045517 | 11 | 131 | 3.2 | 8.0 | 0.00 | 0.00 | 0.00 | 79 | 1023.6 |